Theta_e
326 327 328 325 324 324 320 317 303 307 307 298 298 300 297 303 303 303 302 304 302 305 306 306 305 304 304 304 305 306 307 304 306 302 301 317 327 331 334 340 335 338 343 344 348 351 353 349 352 354 355 355 354 353 353 353 352 350 350 349 348 347 347 349 348 348 347 347 347 347 348 348 348 349 348 349 349 349 350 349 348 348 347 347 347 346 345 346 345 345 344 344 342 342 340 339 338
324 327 325 327 322 320 314 309 306 301 301 297 297 300 299 301 301 301 301 303 304 305 305 306 307 306 305 306 307 306 307 308 309 309 313 320 323 327 328 338 338 337 342 345 348 350 352 354 349 354 355 354 354 353 353 352 352 350 349 348 347 347 348 348 348 347 347 346 347 348 347 347 348 348 348 348 348 349 349 349 348 348 347 347 346 347 346 346 344 343 344 344 342 340 339 339 338
324 325 324 322 321 319 315 310 301 300 297 294 296 299 301 300 300 302 303 304 305 305 304 304 305 305 306 306 306 306 304 310 309 309 311 320 320 325 330 335 339 341 342 345 348 350 351 351 345 353 355 354 354 353 353 352 351 350 349 348 348 347 348 348 348 347 346 347 347 348 348 347 347 348 347 348 348 348 348 348 348 348 347 346 347 346 346 346 345 344 342 341 340 338 337 336 336
326 324 319 318 314 316 309 306 304 299 297 297 296 300 301 301 301 303 304 304 304 303 304 306 305 308 307 305 306 307 308 309 311 312 313 320 321 328 329 332 337 339 343 346 349 349 351 348 346 353 355 354 353 353 353 352 351 350 349 348 347 348 348 347 348 346 346 346 347 347 347 347 346 347 347 347 347 347 348 348 348 347 347 346 346 345 345 345 344 343 342 340 339 337 336 335 333
327 322 322 319 317 308 309 304 301 301 296 297 296 300 301 302 302 303 304 304 304 303 305 306 307 307 308 306 308 307 307 313 312 312 314 325 331 331 331 335 338 339 341 345 348 348 351 345 345 351 354 354 354 353 353 352 351 350 350 349 347 348 348 347 347 346 346 345 347 347 347 346 347 347 346 347 347 347 348 348 347 346 346 346 345 345 345 344 343 342 341 340 338 336 334 333 332
324 323 322 320 311 311 308 302 300 299 301 302 298 300 302 303 302 302 303 305 304 304 304 306 305 305 306 307 309 309 311 308 312 317 317 329 329 331 335 339 338 339 341 345 349 347 351 342 344 349 355 354 353 353 352 351 351 350 350 348 348 348 348 347 347 346 346 346 347 347 347 348 348 347 347 347 347 347 347 347 347 346 345 345 344 345 343 342 341 340 340 339 337 335 332 330 329
318 319 317 316 312 313 304 301 299 300 300 301 302 301 302 303 302 301 304 304 304 305 304 306 305 306 304 306 308 310 311 312 314 320 322 326 331 333 337 339 341 339 342 345 348 348 350 341 346 349 352 353 353 353 352 351 351 350 349 348 348 348 347 347 347 346 347 347 347 347 348 348 346 347 347 346 346 347 347 347 346 345 344 343 344 343 342 341 341 341 340 338 336 333 330 327 327
319 316 313 309 306 309 302 301 300 303 300 301 302 302 303 303 301 302 303 303 302 304 305 305 305 304 302 306 304 310 313 314 317 319 330 329 330 333 337 338 340 339 341 345 348 348 345 340 344 348 351 352 352 352 352 351 351 350 350 348 348 348 347 347 347 347 347 347 347 347 348 347 347 347 347 347 346 346 346 346 345 345 343 343 342 342 341 341 343 341 340 337 334 331 329 327 326
318 315 311 312 304 305 301 300 301 301 302 302 303 303 306 303 303 302 303 302 304 303 304 306 306 302 303 305 306 312 313 315 316 328 329 329 330 333 334 337 338 340 341 342 345 348 349 338 342 346 348 351 352 352 352 351 351 350 349 349 348 348 347 348 347 348 347 347 346 347 347 347 347 347 347 347 346 345 345 343 343 344 343 342 341 341 341 340 343 341 339 336 334 330 328 326 325
315 313 306 307 307 300 300 300 300 301 301 302 302 303 303 302 302 302 303 303 302 303 304 303 304 303 305 303 306 310 312 314 321 325 326 329 329 331 332 333 335 338 340 341 343 345 346 342 338 343 345 350 351 352 352 350 351 350 349 348 348 348 348 347 347 347 347 347 347 346 346 347 347 346 347 346 346 345 345 344 343 344 343 342 342 341 340 341 341 340 337 335 333 331 328 326 325
308 310 309 306 301 299 298 299 300 301 300 302 303 303 303 303 302 302 302 303 302 303 304 304 305 305 306 305 307 312 313 313 317 318 322 326 332 330 331 331 333 337 337 340 341 343 344 347 337 338 342 344 347 350 350 350 350 349 349 349 349 349 349 349 348 348 348 347 347 346 347 347 346 346 346 346 345 345 344 344 343 343 342 342 341 340 341 340 339 337 335 333 332 330 327 325 324
305 305 307 300 299 299 299 299 299 301 301 302 301 303 303 302 302 302 303 302 303 303 304 304 303 306 304 304 307 310 311 310 313 319 323 328 330 331 332 332 334 335 336 338 340 340 343 345 348 339 336 340 342 345 346 347 349 348 349 348 348 348 348 348 349 348 348 348 348 347 346 345 345 344 345 345 344 343 343 342 341 342 342 340 340 340 339 338 337 335 333 331 330 329 327 325 324
308 307 301 299 298 299 298 298 299 300 301 301 302 301 301 301 302 303 302 303 303 303 303 305 305 305 302 304 308 309 307 307 314 320 324 329 329 330 334 333 334 335 335 337 338 339 341 342 344 347 344 333 337 339 340 342 345 346 347 348 347 347 347 348 348 348 348 347 347 348 347 346 344 345 345 345 344 343 342 341 340 341 339 339 339 339 337 336 335 333 332 330 329 327 325 324 323
309 309 303 299 298 298 298 299 299 299 299 301 302 301 301 302 303 303 304 302 302 302 304 306 305 306 303 305 306 307 307 307 313 320 325 328 330 330 331 332 334 334 336 336 337 339 340 341 342 345 347 348 349 342 335 337 341 344 345 345 344 344 345 346 346 345 346 345 344 342 341 341 342 343 343 342 343 342 341 340 339 339 339 338 339 337 336 335 334 332 331 329 328 326 323 322 323
310 306 305 302 298 299 298 296 298 299 299 302 300 301 302 303 302 302 302 302 303 305 305 305 306 304 301 302 304 305 304 306 312 319 326 326 329 329 330 330 330 332 334 335 336 337 337 339 340 343 345 347 348 348 350 347 335 338 341 341 341 342 343 342 341 342 340 341 340 337 336 335 333 336 337 338 340 338 337 334 337 339 338 337 337 337 336 335 333 331 330 328 326 324 321 320 321
311 308 304 300 297 298 298 299 297 300 299 302 300 299 301 302 301 302 302 302 305 307 304 304 305 303 304 304 302 303 304 307 311 319 320 321 325 325 322 321 326 326 330 332 334 336 337 337 339 341 342 344 346 346 348 349 336 333 337 339 338 339 338 338 338 338 334 333 332 330 329 336 332 336 328 338 332 334 333 335 334 338 337 336 336 336 335 334 332 331 330 328 325 322 319 316 316
308 310 300 298 296 296 298 299 300 298 301 302 301 302 302 302 303 302 301 303 303 304 304 306 304 306 303 301 303 304 306 309 312 315 316 315 317 316 318 317 319 321 322 325 329 332 334 336 337 339 341 343 344 345 346 347 347 331 335 332 332 334 335 334 335 331 324 322 325 323 325 348 347 345 339 343 327 341 324 326 332 335 337 337 337 336 335 333 332 331 329 326 322 318 314 312 311
310 303 299 297 297 296 299 299 302 301 301 302 302 301 302 301 303 304 303 302 302 304 303 306 304 303 304 304 306 307 308 309 310 311 311 312 313 312 313 314 314 314 317 317 320 320 325 333 336 337 339 340 343 344 345 346 347 339 348 349 347 341 334 330 340 347 334 347 326 336 346 346 345 346 345 334 341 337 332 324 326 331 335 335 334 336 334 333 332 331 328 325 321 316 312 317 312
305 301 299 297 299 299 301 302 303 301 301 302 302 300 301 302 302 304 302 303 303 303 304 304 303 301 305 306 306 306 307 307 308 309 309 309 309 309 310 312 312 313 314 315 316 316 318 321 331 335 337 339 341 343 344 345 346 346 347 348 348 338 342 346 347 346 347 347 345 345 342 345 345 344 344 340 341 328 335 323 325 329 331 330 331 333 334 333 331 330 327 322 318 315 321 316 311
304 303 299 300 302 300 300 302 303 303 302 302 302 300 300 302 301 303 301 301 302 301 302 303 303 303 303 304 305 305 306 306 307 308 307 308 308 308 308 309 310 312 312 314 315 317 317 318 324 333 336 338 339 340 342 343 344 344 345 346 348 346 347 344 343 344 344 346 346 344 343 344 343 343 329 323 328 337 333 321 323 324 325 324 324 330 330 331 331 327 323 320 320 321 322 316 311
305 302 299 301 300 300 302 302 303 302 301 302 301 299 299 302 302 302 301 300 302 302 300 300 300 301 303 304 304 304 305 305 306 306 307 307 308 309 308 309 309 310 312 313 317 317 317 317 317 325 334 337 339 339 340 342 344 344 344 345 344 344 344 346 345 345 345 346 346 345 345 344 343 342 343 341 342 340 338 336 335 335 336 338 325 337 335 333 331 330 326 324 326 323 320 316 314
305 302 303 302 300 302 303 303 301 301 299 301 300 300 301 301 300 301 301 298 301 300 299 300 303 302 301 302 302 304 303 304 304 304 305 305 306 307 308 309 310 311 314 315 315 317 318 318 317 318 330 335 337 339 340 341 342 342 343 342 344 344 345 343 343 342 343 344 344 344 344 344 344 342 342 342 342 340 339 338 338 338 339 337 335 335 334 334 333 330 328 326 322 319 317 315 311
301 302 302 302 303 302 304 302 300 299 301 300 300 301 301 300 300 300 300 299 299 300 301 302 301 301 301 302 302 302 302 302 302 303 303 304 305 306 306 307 308 309 312 313 315 315 316 318 319 317 324 333 335 338 339 340 342 342 342 345 342 340 341 342 342 340 341 343 343 343 342 342 342 341 340 341 341 341 339 338 338 338 337 337 336 335 334 332 328 325 325 323 321 319 316 314 312
301 300 301 301 301 302 303 303 299 300 300 300 301 300 299 300 299 299 298 297 300 300 301 301 301 301 302 301 302 301 301 301 302 302 303 303 304 304 305 305 307 309 311 313 314 315 316 317 318 317 324 331 333 336 337 339 340 342 342 341 341 337 339 339 341 342 338 338 339 340 340 341 341 340 339 339 339 338 338 338 337 334 334 335 335 335 331 330 326 325 325 323 321 319 318 316 316
301 300 301 301 299 302 303 301 300 300 300 301 298 299 300 300 299 299 296 298 300 300 301 300 301 301 301 301 300 301 301 301 301 303 304 304 304 306 306 306 306 307 308 310 311 314 317 318 320 320 325 329 333 335 335 337 339 340 341 341 342 339 342 343 340 340 339 337 337 335 335 337 339 338 338 338 337 337 338 336 334 333 333 334 333 332 331 328 327 326 325 324 322 321 319 318 317
301 301 301 300 300 301 301 300 301 300 300 298 298 300 299 298 299 297 297 299 300 300 300 300 301 300 299 299 299 299 299 300 301 302 302 304 304 304 305 304 304 305 306 308 309 312 316 319 321 321 324 327 333 333 335 336 338 337 338 338 342 340 341 337 340 339 338 336 333 333 332 333 336 337 336 337 336 335 335 334 333 332 332 331 331 330 329 329 327 326 324 323 322 321 320 317 318
301 300 300 300 301 298 301 299 301 298 299 299 298 300 298 298 297 296 295 298 300 300 299 299 300 299 298 298 299 299 299 299 299 301 302 303 303 303 303 303 302 304 306 307 308 311 315 318 322 323 326 329 334 331 335 334 338 335 340 340 335 330 329 329 329 328 328 329 329 328 329 329 330 331 330 330 331 332 332 332 330 330 331 330 331 330 329 328 326 326 325 322 322 321 319 317 318
300 299 299 299 300 300 300 298 298 299 299 298 299 297 298 298 298 297 297 298 300 299 299 299 299 299 299 298 298 299 299 299 300 301 299 300 300 300 301 300 301 302 303 304 306 310 314 317 320 325 327 329 332 334 335 335 329 329 326 327 326 325 324 324 324 324 323 325 325 326 325 324 324 326 327 326 325 323 322 323 325 325 325 326 326 324 324 324 323 321 320 319 320 321 319 318 318
298 298 298 300 300 301 299 299 298 296 298 296 299 297 296 296 295 295 298 300 299 299 298 298 298 298 298 298 298 298 298 299 299 299 299 300 300 300 299 300 300 300 303 303 306 311 312 315 319 322 325 327 328 327 324 323 322 322 321 321 321 321 321 320 318 318 319 320 321 322 322 322 322 322 323 323 322 322 321 321 319 319 319 320 319 320 320 320 320 320 319 319 320 320 320 318 318
297 299 298 298 300 300 297 298 297 297 298 295 297 295 296 295 296 298 297 299 299 299 298 298 297 297 298 298 298 298 298 298 298 298 298 299 300 300 299 300 300 301 301 304 306 308 311 316 319 320 321 320 320 322 321 319 318 318 318 318 318 318 317 316 316 316 316 317 318 318 319 319 321 321 322 321 321 320 319 317 317 316 316 317 319 322 322 322 322 319 317 320 316 319 319 318 318
298 297 297 297 296 297 298 298 298 299 296 296 299 295 297 296 297 298 298 296 298 299 297 297 297 296 297 297 298 298 297 297 297 297 298 299 299 300 299 300 300 300 301 302 303 306 309 313 318 318 319 319 318 316 316 315 315 314 314 313 313 313 312 312 313 314 314 314 314 315 316 316 318 319 319 319 319 319 318 316 315 314 316 317 318 319 319 319 318 317 317 318 319 319 319 317 318
298 296 296 296 295 298 298 298 296 298 297 298 298 295 298 296 297 298 297 298 298 298 297 296 296 296 296 297 297 297 297 297 297 297 297 298 298 299 299 299 299 299 299 300 303 305 306 308 315 317 317 315 314 313 312 311 309 308 307 307 308 308 308 308 308 308 308 308 309 310 312 313 314 314 316 317 316 316 316 314 314 314 314 315 315 316 317 317 316 316 317 318 319 319 319 318 317
296 296 296 296 295 296 297 297 297 297 296 298 298 296 296 295 297 297 297 297 298 297 296 296 295 295 296 296 296 297 297 297 297 297 296 297 298 298 298 298 298 298 299 300 301 303 304 305 308 312 312 312 310 309 308 307 306 304 303 303 303 304 303 303 303 304 304 304 303 304 307 309 310 310 313 314 313 314 314 313 314 314 313 313 313 313 312 313 315 315 313 313 315 316 316 315 315
296 296 295 298 294 296 295 296 298 299 297 296 298 296 298 297 297 296 296 296 297 297 295 295 295 295 295 296 296 296 296 296 295 295 295 296 297 297 298 298 298 298 299 299 300 302 302 304 305 306 309 309 308 307 305 305 304 303 302 301 301 300 301 300 300 301 301 301 302 302 302 304 305 306 307 308 308 309 310 310 311 311 311 310 309 309 309 310 311 313 312 311 311 312 312 310 309
296 294 293 294 293 294 295 295 296 297 297 297 297 296 298 297 296 295 295 295 297 296 295 295 295 295 295 295 295 295 295 294 293 294 294 295 296 297 297 297 297 297 298 299 300 301 303 303 304 304 306 307 308 307 305 304 303 302 302 301 300 300 299 299 300 300 300 301 301 302 303 302 302 303 305 304 305 305 305 307 308 310 310 309 308 307 307 306 308 309 309 310 309 307 306 304 303
297 297 296 296 294 295 294 296 296 296 297 296 297 296 298 299 296 295 295 295 296 295 294 294 294 294 294 294 294 294 294 293 294 294 295 295 295 296 297 298 297 298 298 298 300 301 302 302 303 303 303 304 306 306 305 304 304 302 300 300 299 298 297 296 297 297 299 299 300 301 301 302 303 302 303 303 303 303 304 305 306 306 305 305 303 302 302 302 303 305 305 305 307 307 304 303 302
296 296 295 294 295 296 295 296 296 296 295 296 297 298 298 299 298 296 294 295 295 294 294 294 294 294 294 294 293 293 293 292 294 294 294 294 295 295 297 297 298 298 297 298 299 299 300 302 302 301 303 304 305 306 304 304 302 300 299 297 296 296 295 294 294 295 295 296 297 298 300 300 302 302 303 304 304 303 304 304 304 304 304 304 303 302 303 303 303 304 304 305 304 303 301 301 301
295 295 294 294 295 293 296 295 295 297 295 295 294 295 296 299 296 295 294 294 294 294 294 293 293 293 293 293 293 293 292 294 294 294 293 294 295 295 296 296 296 297 296 297 298 298 300 301 300 301 302 302 302 303 302 301 300 299 297 295 295 295 295 294 293 294 295 295 296 296 297 298 299 300 300 302 302 303 302 302 302 303 303 302 302 302 302 301 302 302 303 304 304 302 300 300 300
295 294 294 293 295 296 296 294 295 295 294 295 294 294 297 298 294 293 294 294 294 293 293 293 292 292 292 292 292 292 292 293 293 293 293 293 294 294 295 295 295 296 296 297 298 298 299 299 299 300 300 301 301 301 301 299 299 298 297 295 294 293 294 294 294 294 295 294 294 295 295 296 296 297 298 298 299 300 300 300 300 301 302 302 301 300 301 300 301 301 301 301 301 302 301 301 300
294 293 292 291 296 293 294 294 294 293 294 295 294 293 297 295 292 292 292 292 291 291 291 291 292 292 291 291 291 292 292 292 292 292 292 292 293 293 294 293 294 295 296 296 297 297 298 299 299 300 300 300 299 298 297 297 296 296 296 295 295 294 293 294 294 294 294 294 293 293 294 294 295 295 295 296 296 296 297 297 298 298 299 300 300 299 298 298 299 299 300 299 300 299 299 299 300
295 295 294 294 295 294 295 295 294 293 293 292 293 294 296 297 293 291 291 291 290 290 290 290 291 291 291 291 291 291 291 291 291 291 292 292 292 292 292 292 293 293 294 294 295 296 296 298 298 299 299 299 298 297 297 296 295 295 295 295 295 294 295 294 293 291 292 292 292 292 292 293 293 293 294 294 294 294 295 295 295 295 295 296 297 296 296 296 297 298 298 298 298 298 298 298 299
295 295 295 297 297 295 294 294 293 294 294 293 294 290 291 294 293 294 291 291 290 290 290 290 291 290 290 290 290 290 290 290 291 290 290 291 291 292 292 292 292 293 292 293 294 295 296 297 297 298 298 298 298 298 299 299 297 296 296 295 293 292 290 290 289 289 290 290 290 292 292 293 293 293 293 293 293 293 293 294 294 293 293 293 294 294 294 293 294 294 295 296 296 298 298 297 296
293 295 297 296 296 295 295 293 293 289 288 292 290 289 288 295 294 292 291 291 290 289 290 291 290 290 290 291 291 291 290 290 290 290 290 291 291 291 291 291 292 291 291 292 293 293 294 295 296 296 296 295 296 296 296 296 295 295 294 293 292 290 289 289 290 291 290 291 291 290 291 292 292 292 292 292 292 292 293 293 293 293 293 293 293 293 292 292 293 294 294 294 293 295 296 293 293
293 295 294 295 295 293 294 294 293 293 293 293 290 293 288 288 295 291 291 290 290 289 290 291 291 290 290 290 290 290 290 290 290 290 290 290 290 290 290 290 290 290 291 291 292 292 293 293 294 293 293 293 294 294 294 295 294 293 293 292 291 290 289 289 289 290 291 291 290 290 290 290 291 291 291 292 292 292 292 292 292 292 291 291 291 291 291 292 292 293 293 293 292 292 293 291 291
296 291 295 295 295 295 295 294 293 292 291 289 292 292 287 287 293 289 291 290 290 289 290 291 291 291 291 291 290 290 290 290 290 290 289 289 289 289 289 289 289 290 290 291 291 291 292 292 292 292 292 292 292 293 293 293 293 292 292 291 290 290 290 290 290 291 290 291 290 290 290 290 290 291 291 291 291 291 291 291 291 291 291 290 290 291 291 291 291 291 291 291 291 291 291 291 290
292 292 294 293 293 293 294 293 292 290 289 285 290 292 286 288 294 293 290 290 292 292 292 293 292 291 291 290 291 290 289 289 289 289 289 289 289 288 288 289 289 289 289 290 290 291 292 292 291 291 291 291 292 292 292 292 292 292 291 291 290 290 290 290 291 290 290 291 290 290 290 290 290 290 290 290 290 290 290 290 290 290 290 290 289 290 290 290 290 290 291 290 291 290 291 291 290
294 296 295 294 293 292 292 292 291 289 284 287 292 291 290 285 292 294 293 295 296 294 293 293 292 291 291 292 291 290 289 289 289 289 288 288 288 288 288 288 288 288 289 290 290 291 291 291 291 290 290 291 291 291 292 292 292 292 291 291 291 290 291 291 290 290 290 290 289 289 289 289 290 289 289 289 290 290 290 290 289 289 289 289 289 289 289 289 289 290 290 291 290 289 289 290 290
296 294 293 293 290 291 290 288 290 284 283 286 285 287 289 283 289 294 297 293 293 296 294 292 291 291 291 291 290 290 289 289 289 288 288 287 287 287 287 287 287 288 288 289 290 290 291 291 290 290 290 290 291 291 291 291 291 292 292 292 291 291 291 290 290 289 289 289 289 289 289 289 289 289 289 288 289 289 289 289 289 289 288 288 288 288 288 288 289 289 289 289 289 289 289 289 289
294 294 293 289 286 285 283 285 281 283 283 285 286 286 286 286 293 295 294 296 294 294 295 295 293 292 292 292 290 290 290 289 288 288 288 287 287 287 287 287 287 287 288 288 289 290 290 290 290 289 289 290 291 291 291 291 291 291 291 291 291 291 291 290 290 289 290 289 289 289 288 288 288 288 287 287 288 288 288 288 287 287 287 287 287 287 287 288 288 288 287 288 288 287 287 288 287
292 291 290 287 283 281 280 282 281 281 284 283 285 288 284 290 292 297 296 294 292 292 292 293 294 293 293 292 291 290 289 289 289 289 288 288 288 287 287 287 287 287 287 288 288 289 290 290 290 289 289 290 291 291 291 291 291 291 291 291 291 291 290 290 289 289 289 289 289 288 288 288 287 287 287 286 287 287 287 287 287 287 287 287 287 287 287 287 287 287 287 286 287 287 287 287 287
292 297 293 290 288 283 279 281 280 283 284 282 284 282 284 284 290 286 289 288 289 289 289 290 293 295 294 292 291 290 289 289 289 288 288 288 287 287 287 287 287 287 287 288 288 289 290 289 289 289 289 290 290 290 290 290 290 290 291 291 290 290 290 289 289 290 289 289 289 288 288 288 287 287 286 287 287 287 287 287 286 286 286 286 286 286 287 286 286 287 286 286 286 286 286 286 286
293 293 294 289 288 292 286 284 284 282 283 282 280 284 289 290 287 287 287 288 288 288 289 289 291 292 292 290 289 289 289 289 288 288 288 288 287 287 287 287 287 287 287 288 288 289 290 289 289 289 289 289 290 290 290 290 290 290 290 290 290 290 289 289 289 289 289 289 288 288 287 287 287 287 287 286 286 286 286 286 286 285 286 286 285 285 285 285 285 285 285 285 285 286 285 285 285
290 290 287 291 293 291 281 280 279 279 282 282 286 285 288 291 289 288 288 287 289 288 289 289 290 291 291 290 290 289 289 289 289 288 288 287 287 287 287 287 287 287 287 288 288 289 289 289 289 289 289 289 289 290 289 290 290 289 289 290 290 290 290 289 288 288 288 288 288 288 287 287 287 286 286 286 285 285 285 285 285 284 284 285 284 284 284 284 284 284 284 284 284 284 284 284 284
291 286 292 291 294 295 289 284 281 282 280 282 283 284 286 285 285 287 287 287 289 289 288 289 290 290 290 291 290 290 289 289 289 289 289 288 287 287 287 287 287 287 287 288 288 289 289 290 289 288 288 288 289 289 289 289 289 289 289 289 289 289 289 288 288 288 288 287 287 287 287 286 285 285 285 285 285 284 284 284 284 284 284 284 283 283 283 283 283 284 283 283 283 283 283 284 284
293 292 298 291 286 285 288 286 278 278 277 281 282 283 285 287 288 286 288 288 290 289 288 287 288 289 290 291 291 290 290 289 289 288 288 288 287 287 287 287 287 288 288 288 288 288 289 289 289 289 288 289 289 289 289 290 290 290 289 289 288 288 288 288 287 287 287 286 286 286 285 285 285 284 284 284 284 283 283 283 283 283 283 283 283 282 282 282 283 282 283 283 283 282 282 282 283
293 292 292 292 291 288 285 287 286 286 282 279 281 278 283 288 291 291 292 292 294 290 288 288 290 290 290 291 291 290 289 289 289 288 288 288 288 287 287 287 287 287 287 288 288 288 288 289 289 289 289 289 289 289 289 289 289 289 288 288 288 288 287 287 287 287 286 285 285 285 284 284 283 283 283 283 283 282 282 282 282 282 281 282 281 281 281 281 281 281 281 281 281 281 281 281 282
288 289 289 290 288 289 289 287 286 285 282 282 281 280 285 290 294 294 294 295 294 292 290 291 291 292 291 292 292 291 291 290 289 289 288 288 288 287 288 288 287 287 288 288 288 288 288 288 288 289 288 288 288 289 289 289 288 288 287 287 286 286 286 286 286 285 284 284 283 283 283 283 283 282 282 282 281 281 281 281 281 281 280 280 280 280 280 280 280 280 280 280 280 280 279 280 280
291 290 288 290 287 285 283 282 286 283 284 281 280 279 286 291 289 293 294 293 295 294 294 293 292 292 292 292 293 293 291 290 290 289 289 288 288 288 288 288 287 287 287 286 288 288 288 288 288 289 288 288 288 288 288 287 287 287 286 286 285 285 285 285 284 283 283 283 283 282 282 282 281 281 281 280 280 280 280 280 280 279 279 279 279 279 279 279 279 278 278 279 279 278 278 278 279
Wind_Speed
4 3 2 1 1 2 3 2 3 2 3 4 4 1 4 1 2 3 2 4 3 3 1 1 2 3 3 4 6 4 3 4 4 6 5 3 2 3 1 3 1 0 5 9 10 12 11 8 6 9 11 11 12 13 13 12 12 13 12 12 11 10 10 10 9 9 9 8 9 9 8 8 8 8 8 8 9 10 11 11 11 12 13 13 13 13 13 13 13 13 13 13 13 13 13 12 12
2 2 1 1 1 2 2 2 0 4 3 5 5 2 4 1 3 2 4 3 5 3 1 3 2 2 3 5 4 3 3 6 5 4 2 3 2 3 2 4 1 2 6 8 9 12 12 11 5 9 10 10 11 13 12 12 12 13 12 11 11 10 10 10 10 9 8 9 8 8 8 8 8 8 8 8 8 9 11 11 11 11 11 12 12 13 12 12 12 12 12 12 13 12 12 12 11
2 3 1 1 1 2 3 2 2 3 4 4 4 3 1 2 2 3 4 3 3 2 2 2 1 3 4 4 4 3 6 2 3 1 3 1 3 5 5 3 2 2 6 7 9 12 10 11 6 9 11 9 11 12 12 12 12 12 11 11 10 10 9 10 10 9 9 8 9 8 8 8 8 7 7 8 7 8 10 11 11 10 10 10 9 11 12 12 11 12 12 12 12 12 11 11 11
0 2 3 2 1 2 2 1 1 3 3 4 5 3 1 3 5 4 3 4 3 3 1 4 3 2 4 1 3 3 3 3 2 3 1 4 5 7 5 2 1 2 6 6 9 11 9 10 7 8 10 10 11 11 10 11 12 11 10 10 9 9 9 9 9 9 8 8 8 8 8 7 7 7 7 7 7 8 10 10 10 10 10 10 9 9 11 12 11 11 11 11 11 11 10 10 9
1 1 3 2 3 2 1 2 1 1 3 3 5 4 2 1 3 3 4 4 2 2 2 1 2 2 3 4 2 3 6 1 4 2 2 3 3 6 3 2 2 3 6 8 9 10 9 10 5 8 9 11 12 12 11 10 11 11 9 9 9 8 9 9 8 8 8 8 8 7 7 7 8 8 7 7 7 8 9 10 10 10 10 10 8 9 11 10 10 10 10 10 10 10 9 9 8
2 1 2 2 1 2 2 3 4 1 7 2 6 5 2 3 2 4 5 3 3 1 2 3 4 2 2 1 1 3 7 3 6 2 5 4 8 6 2 3 1 4 6 8 8 9 8 7 5 5 9 11 12 11 11 11 12 11 9 11 9 8 9 9 8 8 7 7 7 7 6 7 7 7 7 7 8 8 9 10 10 9 9 8 9 10 10 9 8 8 8 9 9 9 9 8 8
2 2 1 2 4 2 1 1 3 4 4 4 5 5 3 4 3 4 2 3 2 1 1 3 2 4 3 2 2 1 5 3 5 4 5 9 7 4 1 1 2 5 6 7 7 9 8 8 4 3 6 9 11 11 10 10 12 11 10 11 10 9 9 9 8 8 8 7 7 6 6 5 6 6 6 7 7 8 9 10 10 9 8 9 9 9 8 8 7 7 7 8 9 9 9 8 8
2 3 2 2 3 2 2 2 4 2 3 2 3 3 3 3 2 2 3 3 4 1 2 1 1 3 5 2 2 4 5 5 4 5 7 6 6 2 2 2 1 4 6 6 7 8 8 5 4 4 3 7 8 8 10 9 11 10 9 10 9 10 10 9 8 8 8 7 7 6 6 6 6 6 7 7 6 7 8 10 9 9 9 9 10 9 8 9 10 8 8 9 10 9 9 8 8
3 1 1 2 2 1 2 2 3 2 1 2 1 3 4 3 2 3 2 2 2 2 2 1 1 4 4 1 3 4 5 10 5 3 8 8 7 5 2 4 3 2 2 3 4 7 8 6 4 4 2 5 7 10 10 11 11 11 9 9 9 9 10 9 9 7 8 7 7 6 6 4 6 6 7 7 7 7 8 7 8 8 9 10 9 9 8 8 11 9 9 10 10 10 9 8 8
1 3 1 1 1 2 2 3 4 3 2 2 3 2 2 1 1 3 3 2 3 2 2 2 2 4 2 3 5 6 6 9 4 4 10 9 7 5 4 5 5 2 1 2 1 4 7 6 3 3 3 3 5 7 10 9 10 10 9 9 9 9 8 8 8 7 7 6 6 5 5 4 5 6 7 7 7 8 9 9 8 9 9 9 9 9 9 10 10 10 10 10 10 10 9 9 8
0 3 1 3 2 2 4 4 1 4 2 1 1 1 2 2 3 1 2 2 2 3 2 1 3 3 3 4 5 2 0 9 12 11 10 7 5 5 4 5 5 3 1 3 3 4 6 6 3 2 2 1 4 5 6 7 9 10 9 8 8 7 7 7 6 5 5 5 4 4 4 4 5 7 7 8 8 9 9 9 10 9 8 9 10 10 11 10 10 10 10 10 10 10 9 9 9
1 1 2 2 2 2 2 2 3 3 4 2 6 2 1 1 3 1 2 1 2 1 3 2 3 3 1 1 5 3 5 13 10 7 8 5 3 3 3 2 3 3 2 2 3 4 5 6 6 4 1 1 2 5 6 6 7 7 8 8 8 7 6 6 6 5 3 3 2 2 3 3 3 3 5 8 7 7 6 4 6 8 9 10 11 11 11 10 10 10 10 10 10 10 10 10 9
2 2 1 2 2 1 3 1 3 2 4 4 4 2 1 3 1 3 2 0 1 2 4 1 1 2 2 1 4 3 6 12 11 8 6 4 2 2 2 2 3 3 2 1 3 4 4 5 6 8 6 2 2 2 6 7 6 7 8 8 6 6 5 6 5 4 4 3 2 1 3 3 3 4 5 8 8 7 7 5 5 8 9 11 11 12 11 11 10 10 10 10 10 10 10 10 9
1 1 1 1 1 1 2 1 1 4 4 6 2 2 1 2 2 2 1 0 2 4 3 2 2 2 1 4 5 1 7 12 13 9 4 3 2 2 3 3 3 3 3 2 2 2 2 3 5 7 7 7 8 5 4 6 8 7 8 9 8 7 6 5 5 5 4 3 2 3 3 3 3 3 5 5 7 7 8 4 5 9 9 10 12 11 11 11 10 10 10 10 9 9 10 10 10
1 1 2 3 3 2 1 3 4 6 5 5 2 3 0 1 3 1 2 4 3 3 2 3 3 4 3 5 2 5 10 13 12 9 3 3 4 5 5 4 4 4 4 2 1 2 2 3 4 5 7 9 11 10 9 6 7 8 8 7 8 8 7 7 7 7 6 4 4 3 4 3 6 5 3 5 6 6 9 7 4 8 10 10 10 11 11 11 10 9 9 9 9 9 9 9 10
2 2 1 2 2 3 3 2 1 3 5 3 3 2 2 2 1 3 3 4 4 1 3 1 3 4 4 3 5 9 11 11 10 7 1 5 4 4 4 5 4 5 4 3 2 1 2 3 3 4 6 8 9 9 9 9 6 8 9 9 9 8 7 7 8 8 7 7 5 6 3 5 3 5 6 5 6 6 9 9 8 10 9 9 10 9 10 11 9 8 9 9 9 8 8 8 9
0 2 2 1 3 3 4 3 5 2 7 3 2 0 2 1 1 2 1 3 5 2 4 3 2 2 5 4 4 6 8 8 7 3 5 5 2 3 3 4 3 3 3 4 3 2 3 3 4 4 6 7 8 8 8 9 7 6 7 8 9 9 7 7 7 7 8 6 8 8 6 3 4 4 5 4 5 5 8 10 11 9 9 9 8 9 10 9 8 9 9 9 8 7 6 7 7
3 0 1 2 2 2 4 3 4 3 3 4 1 2 2 0 1 2 3 3 4 5 4 1 6 9 9 4 3 4 6 9 10 8 8 6 5 4 4 5 4 4 4 3 3 4 2 2 4 5 5 7 8 7 7 7 6 6 9 10 7 8 9 8 7 8 6 6 5 6 5 5 4 4 4 4 4 3 1 12 11 9 9 7 7 10 10 9 9 10 9 9 8 7 2 2 3
1 2 1 2 2 3 1 2 3 2 3 2 1 0 2 1 2 3 5 3 5 7 4 1 7 8 8 9 9 9 9 10 10 10 10 11 8 8 6 5 5 5 5 5 4 5 4 3 3 5 6 6 7 8 6 7 8 8 8 7 8 7 7 8 9 8 6 6 6 7 6 5 5 5 5 5 5 6 6 10 11 11 8 7 9 10 10 10 10 10 10 8 7 3 2 3 3
2 3 0 1 1 2 2 2 2 2 2 1 0 2 3 1 1 1 3 7 6 5 4 2 2 1 8 8 9 9 9 9 10 10 11 10 9 8 8 8 7 6 6 6 6 4 4 4 4 5 6 7 7 7 6 6 7 7 8 6 4 6 7 7 9 8 7 6 5 6 6 5 5 5 6 9 7 7 4 4 12 13 11 9 11 8 9 9 11 11 10 8 5 2 4 3 3
2 2 0 2 2 2 4 5 3 1 2 2 1 2 3 3 1 2 1 6 3 2 8 5 5 5 5 6 7 8 9 10 11 11 11 10 9 7 6 6 7 7 6 7 4 5 6 5 5 5 6 7 7 6 7 6 6 7 7 7 7 6 6 5 3 6 6 6 6 5 5 4 5 5 5 6 6 6 7 7 7 7 7 5 8 4 5 6 5 4 5 3 3 3 3 4 4
3 2 3 3 2 3 4 3 2 2 1 3 3 4 1 2 2 4 4 3 3 5 6 5 5 5 5 6 6 7 9 10 11 12 12 11 11 10 9 7 7 6 7 6 8 7 7 7 5 5 5 7 8 6 6 6 5 6 6 6 5 2 5 5 4 2 5 5 5 6 6 6 5 4 5 6 6 6 7 8 8 7 7 4 5 3 3 4 3 2 2 2 2 3 3 3 3
2 3 1 1 1 4 2 3 2 4 3 4 4 1 1 3 1 1 4 2 4 4 4 5 5 5 3 4 5 8 9 10 10 10 10 11 11 11 10 8 8 8 8 8 9 8 8 8 6 4 5 6 8 8 6 6 6 6 5 4 5 6 5 5 1 1 2 4 5 6 6 6 6 5 6 6 6 5 6 7 7 4 1 1 2 4 3 3 3 3 2 2 2 3 4 3 2
2 1 2 2 3 5 1 2 4 4 3 4 2 2 5 2 4 2 2 3 4 4 4 4 5 5 4 7 9 8 9 9 8 7 6 7 8 9 9 8 8 6 8 10 9 8 8 9 7 3 4 5 5 7 7 6 6 5 5 4 4 3 3 3 3 1 2 1 2 4 6 6 6 5 5 6 6 6 6 5 4 2 2 2 3 2 4 2 2 1 3 3 3 3 3 3 2
2 2 2 1 2 4 2 3 4 5 7 4 2 4 3 1 1 5 3 3 3 4 3 3 4 6 8 9 9 10 10 8 8 7 6 5 6 6 8 6 8 7 8 10 9 8 9 8 6 2 3 5 4 6 6 5 5 5 2 4 3 3 3 3 2 2 2 2 1 1 2 4 5 5 5 5 4 6 5 5 5 4 3 2 1 2 3 3 2 0 1 1 1 2 2 3 1
3 1 0 1 4 3 4 5 8 6 3 3 4 5 1 0 2 5 4 4 3 3 3 3 5 8 8 9 8 7 7 8 7 8 7 5 6 8 10 9 8 9 9 8 8 8 8 8 5 3 1 4 4 4 5 4 4 3 4 2 1 1 3 1 2 3 5 5 6 6 4 3 3 3 5 5 5 5 5 4 4 4 3 2 2 3 2 1 1 1 1 0 1 2 2 3 2
1 1 2 5 4 4 2 5 3 2 4 3 5 4 3 3 3 3 3 3 3 3 5 5 5 7 7 5 5 5 6 8 7 6 6 6 7 9 10 9 10 9 9 10 8 8 8 8 6 4 3 1 3 4 4 4 4 4 0 1 9 9 8 8 9 8 8 7 7 6 6 6 4 4 5 6 4 4 3 1 3 3 2 1 1 3 3 2 2 1 1 1 0 2 3 2 2
2 2 3 6 5 6 5 4 5 2 2 3 6 2 2 2 2 3 3 4 2 3 5 5 5 6 5 6 5 5 6 6 6 7 11 11 8 8 9 9 10 10 8 10 8 8 8 8 7 5 5 0 4 5 5 6 10 8 11 9 9 10 10 9 8 7 7 7 8 7 6 5 5 5 4 5 5 5 5 5 4 4 4 3 3 3 3 3 3 3 3 3 2 2 2 3 2
1 2 6 4 5 7 3 1 1 2 1 2 4 5 5 3 4 3 4 2 4 3 5 5 6 5 5 4 5 6 6 7 7 8 9 7 7 7 8 9 9 9 6 8 9 9 9 8 7 8 7 8 8 11 9 9 9 9 9 9 8 9 9 9 9 9 8 8 8 8 8 8 7 7 7 7 7 6 6 5 5 5 6 4 4 5 5 3 3 3 3 2 3 2 2 2 2
1 2 3 9 5 5 4 1 1 3 2 1 3 6 5 4 3 3 1 3 4 3 4 4 3 3 4 4 4 6 7 7 9 8 7 7 7 7 8 9 9 7 7 7 10 10 8 7 6 7 9 10 11 11 11 10 9 9 9 9 9 10 9 10 9 9 10 9 8 10 9 9 8 8 7 6 6 7 7 6 5 5 5 4 2 4 4 3 3 4 3 2 3 3 2 1 1
4 1 2 5 5 2 4 2 3 4 2 2 4 7 3 6 4 4 3 5 5 2 3 3 3 3 3 3 4 5 6 7 7 8 8 8 7 7 8 9 9 9 7 8 9 9 10 9 8 7 9 11 12 12 12 11 10 10 10 10 9 9 9 9 9 9 9 8 8 9 10 9 10 9 7 6 7 7 6 6 7 5 4 2 4 5 4 4 4 4 2 2 1 2 2 1 1
1 4 4 2 4 2 3 4 1 4 3 1 5 6 2 8 3 4 3 1 5 4 3 3 3 2 2 2 3 4 5 6 7 8 9 8 8 7 8 9 9 9 9 8 7 8 9 9 9 10 11 13 12 11 11 12 12 11 10 10 9 11 9 9 9 9 9 8 8 9 11 10 10 10 8 6 8 7 7 6 6 5 4 4 5 4 4 4 3 2 2 2 3 2 2 3 2
1 5 6 5 2 5 5 3 1 2 1 2 4 3 4 6 3 2 3 1 3 4 4 3 2 2 2 3 3 3 3 5 6 8 10 8 8 7 7 8 9 9 8 9 9 8 9 9 9 11 12 12 12 13 14 13 12 12 11 10 11 10 10 9 8 7 8 9 8 8 10 10 10 11 9 9 9 9 8 7 7 7 5 6 5 5 5 4 3 2 2 2 2 3 2 3 2
5 2 6 1 5 2 4 4 2 2 2 3 1 5 4 7 5 2 2 1 4 4 4 3 2 2 2 2 3 3 4 5 7 8 9 9 7 8 7 7 8 8 8 9 9 8 7 7 8 8 8 10 10 11 11 10 11 12 10 10 11 11 11 9 7 8 9 8 8 8 8 9 9 9 8 8 7 7 7 7 7 7 7 6 5 5 5 4 4 4 3 3 4 4 4 5 5
4 5 5 6 5 7 7 3 3 2 1 2 1 6 10 6 6 3 3 1 3 3 3 3 2 2 2 2 3 4 5 5 6 7 8 8 8 7 6 7 7 7 7 8 8 7 7 7 7 8 9 9 10 11 12 12 11 12 10 10 11 11 9 9 8 9 8 8 8 9 9 8 9 9 8 7 7 6 7 7 7 8 6 6 6 6 7 7 7 6 6 4 3 5 4 5 5
5 5 5 4 6 6 6 3 2 2 6 7 7 9 11 5 7 5 4 2 3 3 3 2 2 2 2 2 3 3 4 5 4 6 6 6 6 6 6 5 6 6 6 7 8 8 8 8 7 8 8 7 7 9 8 8 8 8 9 9 11 11 9 9 9 9 9 9 9 9 9 9 9 8 8 7 8 8 8 8 8 8 8 7 8 9 8 7 8 6 6 6 5 4 7 7 7
5 2 2 6 7 9 3 2 3 0 3 9 11 10 11 12 4 5 5 4 4 4 4 3 3 2 2 2 3 3 4 4 3 3 5 5 5 5 4 5 5 6 8 8 8 9 9 7 7 9 6 6 6 6 6 6 8 8 9 10 10 7 8 8 10 9 9 8 9 10 10 9 9 9 9 9 9 10 9 8 8 9 9 9 9 9 8 8 7 6 4 5 7 7 8 8 9
5 5 5 7 6 10 1 1 3 1 4 3 2 5 10 8 5 3 4 4 5 4 4 4 4 3 2 3 3 2 3 2 2 3 4 5 4 5 5 5 6 8 8 8 8 7 7 8 9 7 6 7 8 8 7 9 8 7 8 8 8 7 7 8 9 8 8 8 10 10 10 10 10 10 9 10 10 9 9 9 9 8 8 8 8 8 9 8 9 9 7 5 7 7 7 9 9
4 7 5 6 9 5 3 1 3 2 5 6 2 7 9 3 5 4 3 4 1 0 1 1 3 3 3 2 2 3 3 2 3 4 4 4 5 5 5 6 6 7 6 7 6 6 7 8 7 7 7 8 8 8 9 9 8 9 10 8 9 9 9 9 9 8 8 10 10 10 10 10 10 10 10 9 8 9 9 8 8 7 8 7 7 9 9 10 9 10 10 7 5 6 6 7 9
7 6 6 10 2 2 4 4 2 3 3 1 0 5 10 3 3 3 2 1 2 2 1 1 0 2 3 2 2 2 3 3 3 3 3 4 4 5 5 6 6 5 5 6 6 6 6 7 7 7 8 9 9 9 11 11 12 12 11 10 10 10 9 9 10 9 10 11 11 10 10 10 10 10 11 10 9 10 9 9 8 8 8 8 8 9 10 10 10 10 9 10 7 6 7 7 9
8 9 9 10 7 8 9 1 1 2 2 1 4 7 10 6 5 4 4 3 3 3 3 3 2 2 2 2 2 1 3 3 3 3 3 3 5 5 6 5 5 5 6 5 5 5 4 6 7 8 9 9 9 10 11 11 11 12 10 11 9 10 9 8 9 10 9 10 10 11 10 11 11 11 11 11 10 11 10 9 9 9 9 9 9 9 10 10 9 9 9 9 10 7 7 6 7
6 10 14 13 9 9 4 1 3 5 5 5 4 4 4 4 4 3 5 4 4 3 4 5 5 5 5 5 4 3 2 1 2 3 3 3 4 5 5 5 6 5 5 5 4 4 5 6 7 8 7 7 7 6 5 6 7 8 8 8 8 8 9 9 9 8 8 9 9 8 10 11 11 11 11 11 11 10 11 10 10 10 10 9 9 9 9 9 10 10 9 8 9 9 6 7 7
5 4 11 15 11 4 5 5 4 5 5 3 2 6 2 3 4 6 5 5 5 4 5 5 5 6 5 5 5 5 5 4 2 3 3 4 4 5 5 5 5 5 4 3 3 5 6 6 7 7 6 6 5 5 5 6 7 7 9 10 9 9 10 8 7 7 7 7 7 10 9 10 11 11 11 11 11 11 10 10 10 10 9 9 9 9 9 9 8 8 8 9 8 8 8 7 8
6 2 1 4 5 8 9 8 9 3 4 1 1 3 5 6 3 5 4 5 5 5 6 7 7 7 7 6 6 5 4 4 3 4 4 3 4 4 5 4 4 4 3 3 4 4 6 6 7 7 7 7 6 6 7 6 8 9 10 11 10 10 10 10 9 8 7 7 8 9 8 9 10 10 10 11 11 10 10 10 10 9 9 9 8 9 9 8 7 7 8 8 8 8 8 7 7
1 2 1 4 5 5 6 7 5 1 2 4 6 4 3 5 2 4 3 4 7 9 9 11 11 9 9 8 7 6 5 4 4 4 4 4 5 4 4 4 4 4 3 3 4 5 6 7 8 8 9 8 8 8 9 9 9 9 10 10 11 9 10 8 7 7 7 7 9 8 9 9 9 10 10 10 11 10 9 9 9 9 9 8 8 7 8 8 9 9 9 8 8 7 7 6 6
2 5 8 7 6 6 3 4 4 2 4 6 7 9 5 6 5 4 4 5 9 8 12 12 11 11 10 9 8 7 5 4 3 3 4 3 3 3 3 4 4 3 3 4 4 5 6 7 9 11 10 8 8 10 10 11 11 9 10 10 13 10 8 8 7 7 7 6 8 8 8 8 7 8 9 10 10 10 10 9 9 9 9 8 7 7 7 7 7 7 7 7 7 7 6 6 6
10 6 9 6 6 5 3 2 1 1 5 8 2 6 7 5 6 8 6 4 1 7 7 8 9 10 10 9 9 8 7 6 5 5 4 4 3 3 3 5 5 4 3 4 4 5 6 7 9 12 10 9 9 10 10 11 10 10 10 11 12 12 9 8 8 7 6 7 8 8 8 7 7 7 7 8 9 9 9 9 9 8 8 7 8 8 8 7 6 6 6 6 8 8 6 6 5
6 4 5 7 3 3 2 1 2 4 6 4 2 2 3 7 4 6 5 3 3 6 10 13 13 13 12 10 8 8 8 7 6 6 6 5 5 4 4 5 5 5 5 5 5 5 7 8 9 13 11 10 9 9 10 10 10 10 10 11 11 10 9 8 9 9 7 8 7 7 6 7 7 7 7 7 8 9 7 8 8 8 8 8 8 6 7 6 6 6 6 6 6 7 7 6 6
3 6 8 8 5 2 5 3 5 9 6 2 2 2 3 12 5 2 1 6 3 4 1 11 14 14 12 10 9 8 7 7 7 7 6 6 6 7 6 6 6 5 5 6 6 6 7 8 10 13 11 9 9 9 10 10 10 10 9 10 10 9 9 10 9 8 7 7 6 6 6 6 6 7 7 7 7 9 7 7 8 7 6 7 6 6 6 7 6 5 6 6 6 7 6 6 5
7 11 10 9 6 6 5 4 2 4 1 0 2 2 6 4 7 10 7 3 3 2 2 2 9 13 13 11 10 8 7 8 8 7 6 7 7 7 6 6 5 5 6 6 6 6 6 7 9 12 11 9 9 9 9 10 10 9 9 9 9 8 9 8 8 8 6 6 5 6 6 6 6 6 6 7 6 6 6 6 6 6 6 5 6 5 6 6 6 5 5 6 6 5 5 5 5
12 2 9 6 6 4 6 5 6 3 1 3 2 1 4 7 4 4 3 3 2 1 1 2 1 8 9 9 8 8 9 9 7 7 8 8 8 7 6 6 5 5 7 6 6 6 7 8 9 12 12 9 10 9 9 10 9 9 9 8 8 8 8 8 7 6 6 6 6 6 6 5 5 5 5 5 5 5 5 5 6 5 6 5 5 6 5 5 6 4 4 5 4 4 5 5 4
1 1 3 1 6 1 3 1 1 1 1 3 3 5 1 5 2 2 1 1 2 1 1 3 5 7 8 8 10 10 10 10 9 9 9 8 8 7 6 6 6 6 7 6 7 7 7 8 9 11 11 10 9 10 9 9 9 8 9 9 9 8 8 7 7 6 6 6 6 6 6 5 5 5 4 4 5 5 5 5 5 5 5 5 5 5 5 4 5 4 4 4 4 3 4 5 4
8 5 7 4 5 5 6 3 4 2 1 9 5 5 5 1 2 2 2 1 4 2 4 5 6 10 10 10 11 11 10 10 10 10 9 10 8 7 7 7 7 7 7 7 7 7 9 9 10 11 11 9 10 10 10 9 9 9 9 8 8 8 8 8 7 8 7 6 6 5 5 5 4 4 3 3 4 4 4 4 3 3 4 4 4 4 4 4 4 3 3 3 4 4 4 4 4
9 7 8 3 1 3 2 4 2 2 6 5 4 10 7 7 6 4 3 4 7 7 6 6 7 9 12 12 11 11 12 11 10 9 9 9 9 9 8 7 8 8 8 8 8 7 7 8 10 12 11 12 10 10 10 9 10 9 8 8 8 8 8 8 7 7 6 5 5 4 4 4 4 3 2 2 2 3 3 3 3 3 3 3 3 3 4 4 4 3 3 3 3 4 4 4 3
3 2 3 6 4 5 2 1 4 4 4 5 5 6 7 10 6 5 8 9 11 10 8 8 10 11 14 12 12 12 10 9 10 11 10 10 9 9 9 9 9 8 8 8 8 7 7 7 9 10 12 11 11 9 9 8 8 6 6 7 8 7 6 6 6 6 5 5 5 4 4 3 3 2 2 2 3 3 3 3 3 3 3 3 4 4 4 4 4 3 4 3 3 4 4 4 4
1 2 3 3 3 3 7 4 1 1 5 1 3 7 8 10 8 15 13 14 11 11 10 12 14 15 14 14 14 14 14 12 12 12 11 10 10 10 11 11 10 10 9 8 9 7 9 9 9 10 10 10 9 9 9 9 7 7 7 7 6 6 6 6 6 5 5 5 4 4 4 3 3 2 2 3 3 3 3 3 3 3 3 3 4 3 3 4 3 3 3 4 4 4 4 5 5
5 7 7 3 0 3 2 1 2 3 4 5 6 8 3 6 5 12 12 13 11 14 13 11 12 13 13 14 16 14 13 13 12 11 11 11 10 10 9 8 7 7 7 8 8 10 9 8 9 10 12 11 10 9 8 7 7 8 8 8 7 6 6 5 6 6 6 5 4 4 3 3 2 3 2 2 3 3 3 2 2 3 3 3 3 3 3 3 3 4 4 4 4 5 5 5 5
10 12 12 12 7 5 6 6 4 1 3 4 3 9 1 4 2 2 3 3 6 11 12 11 12 12 14 14 15 13 12 12 11 9 10 10 11 10 8 7 6 8 8 10 9 8 9 10 9 10 9 9 9 8 7 7 6 7 8 8 7 6 5 5 6 5 5 5 4 3 3 2 3 2 2 2 2 2 2 2 2 2 3 3 3 4 4 4 4 5 5 3 4 5 6 6 5
Wind_Direction
342 354 338 355 254 294 248 13 219 98 236 81 112 210 80 291 331 256 147 179 164 66 338 274 270 197 284 7 341 327 325 308 39 340 53 54 74 64 292 186 38 343 176 165 171 167 180 184 187 160 167 167 162 156 153 150 145 140 139 137 138 144 145 145 142 139 137 136 131 127 125 124 119 114 110 109 104 108 115 117 113 109 107 106 103 98 92 85 81 75 70 65 59 54 48 44 41
337 339 20 270 329 283 172 321 9 138 111 129 80 310 81 68 232 53 74 48 30 73 357 290 268 271 292 285 288 276 219 244 328 9 1 84 95 65 19 213 197 203 176 165 172 169 176 168 186 157 167 168 162 158 152 150 144 141 139 139 141 146 150 149 144 143 140 137 134 129 128 128 125 118 116 112 107 109 118 114 112 104 104 102 104 101 93 87 81 76 72 66 60 53 47 39 33
351 315 234 211 209 336 119 255 210 145 155 111 109 73 140 172 71 70 41 31 36 22 309 281 307 248 233 218 231 288 81 302 286 226 293 80 229 62 23 199 208 271 177 164 173 174 173 168 172 161 165 164 161 158 155 152 142 139 140 140 144 146 156 150 147 146 144 141 138 136 133 133 130 126 121 115 112 114 121 119 113 113 110 101 100 93 94 86 81 78 73 68 63 55 47 39 29
34 16 325 307 170 240 239 204 116 180 127 80 123 127 249 73 80 34 30 14 340 317 221 184 233 86 285 118 33 270 38 89 24 354 46 47 19 333 343 189 198 242 176 167 172 173 183 142 170 159 161 165 165 159 156 149 142 141 142 145 150 151 157 155 151 152 147 149 144 140 138 136 137 133 130 123 121 119 122 120 116 114 109 111 103 103 95 94 88 79 72 67 63 57 47 36 27
229 57 312 250 256 121 324 39 63 260 141 167 108 129 184 228 53 10 26 4 6 259 269 1 238 144 343 309 324 322 50 35 85 5 355 92 23 349 335 132 217 197 175 174 171 173 173 122 161 168 157 164 169 161 154 151 145 142 143 144 154 157 161 159 155 150 148 152 148 149 149 152 153 148 140 131 126 124 126 126 124 120 120 116 103 91 95 91 80 72 67 67 66 60 51 39 27
144 247 28 279 311 27 201 179 162 119 53 47 126 97 95 48 357 359 337 37 59 284 320 291 343 18 198 88 342 354 2 356 348 57 329 61 353 342 85 152 212 169 165 176 174 180 172 121 165 171 168 168 168 162 158 154 150 149 147 149 157 162 166 166 160 151 160 160 162 158 162 169 160 155 145 138 134 133 135 133 129 125 125 117 102 98 91 86 71 65 64 67 65 61 51 43 33
346 222 93 103 123 244 270 139 117 117 82 332 73 100 50 49 9 316 89 175 102 138 179 351 317 263 204 46 212 4 33 344 313 10 341 324 346 354 132 139 167 161 159 173 179 184 172 134 172 168 172 171 170 163 162 160 154 154 156 157 160 162 173 169 167 161 167 168 166 170 178 168 151 152 146 140 140 143 141 141 132 129 120 97 96 100 85 61 68 66 71 68 62 57 51 40 32
136 273 21 267 73 282 109 94 101 346 102 329 8 344 38 8 339 285 64 300 64 321 71 143 266 311 61 261 41 81 74 34 327 352 348 350 345 9 346 349 150 158 166 168 176 186 117 145 170 169 171 164 161 165 162 164 159 156 159 160 165 166 175 173 171 166 169 176 173 182 175 162 152 154 144 144 146 145 147 134 137 132 115 97 85 77 63 36 86 85 79 69 63 58 49 40 30
16 329 186 236 134 76 145 137 88 37 104 193 256 270 305 332 308 286 73 60 165 261 296 22 332 282 50 295 50 74 59 358 30 49 25 16 20 17 355 349 356 94 165 167 174 189 189 154 185 167 157 172 159 167 171 169 164 162 165 163 170 173 175 182 170 176 171 183 183 185 166 164 150 160 153 149 145 137 115 132 138 132 115 102 92 73 57 41 86 78 69 61 58 52 44 37 31
108 323 121 24 12 157 145 138 197 96 52 55 320 345 314 199 213 262 314 142 41 271 44 0 296 1 324 77 122 55 13 350 351 39 20 25 22 18 20 13 1 8 193 218 198 200 204 124 186 175 161 162 171 172 181 177 169 166 169 170 174 180 180 184 177 180 179 192 181 187 187 170 161 161 155 150 141 128 137 144 148 120 116 104 88 74 67 70 79 71 61 54 51 46 42 35 32
339 68 4 213 191 151 208 145 130 138 104 86 148 332 328 248 248 215 294 360 136 352 49 183 188 9 270 88 53 107 55 18 21 6 357 7 28 34 30 21 10 12 12 216 216 212 206 206 157 212 160 156 172 172 182 179 186 175 174 170 178 183 183 173 184 180 178 198 200 177 204 175 176 171 159 153 145 142 147 156 135 122 107 91 83 82 81 77 71 65 59 52 45 41 39 36 31
221 356 253 207 191 280 119 133 124 82 94 145 95 60 46 262 217 212 48 16 41 131 81 220 32 311 298 156 135 143 51 23 17 4 347 358 40 53 50 47 38 55 48 214 218 215 217 206 201 170 240 172 175 167 171 180 184 177 173 177 181 181 177 177 170 175 173 165 157 136 197 169 187 166 167 154 140 145 136 124 123 109 97 92 91 87 84 78 74 67 62 56 44 37 33 35 33
55 269 100 188 67 261 71 208 122 45 143 112 87 61 276 253 325 37 80 338 274 300 100 346 351 262 284 330 86 173 33 15 2 359 349 358 11 70 105 83 58 69 89 140 205 210 214 219 215 208 189 174 146 184 170 173 182 172 182 174 181 181 172 171 167 158 175 152 161 74 100 138 130 165 180 146 142 149 140 117 115 113 95 96 93 92 86 82 76 73 65 57 50 38 34 34 34
323 324 314 112 320 123 177 64 93 187 154 114 75 319 229 265 48 341 184 183 110 4 45 27 216 287 257 288 138 331 25 7 341 350 348 12 19 60 66 69 63 60 67 121 176 200 219 226 230 222 205 205 204 168 185 182 174 181 186 176 168 179 171 167 166 158 167 163 136 87 89 131 152 113 132 151 141 138 124 135 139 105 100 93 99 95 92 86 78 72 68 63 55 46 38 34 34
92 244 81 111 126 206 154 218 167 202 123 128 70 323 225 221 323 227 303 343 82 29 5 216 339 269 77 329 69 12 341 338 330 326 333 48 61 62 52 55 79 55 39 52 142 196 212 220 223 230 228 219 215 214 206 182 185 170 178 188 168 174 174 169 163 168 159 167 132 99 117 106 83 85 115 146 136 145 124 117 127 98 101 104 103 100 97 90 82 79 76 71 64 52 44 40 37
88 189 83 171 133 241 141 204 31 212 128 134 102 270 234 120 229 298 74 328 326 110 309 36 175 334 7 352 8 335 329 324 320 307 22 72 96 91 65 45 60 68 51 31 13 334 245 225 219 222 225 228 221 221 220 209 174 181 170 180 176 181 183 172 169 167 162 153 154 134 145 124 138 139 156 149 147 146 138 135 120 112 106 109 108 107 96 91 97 90 86 81 71 63 54 49 39
205 265 197 104 176 231 128 204 171 164 106 122 142 128 350 1 104 254 355 248 279 19 331 290 52 351 51 43 339 326 331 328 336 1 42 44 25 72 64 36 14 62 38 42 29 3 325 283 241 227 222 222 226 228 231 227 180 180 170 176 184 171 183 182 176 164 161 155 156 156 155 212 185 155 173 197 129 170 131 120 115 107 112 117 126 111 104 108 105 103 96 90 83 76 78 80 60
250 218 335 189 56 209 147 193 181 34 118 116 88 33 331 262 329 32 251 207 213 267 266 61 116 85 83 93 27 8 1 12 15 35 35 34 21 22 23 22 14 13 5 1 17 4 341 287 258 239 233 227 224 224 226 228 213 178 213 205 199 184 185 188 183 198 188 203 175 162 204 203 203 176 173 133 201 96 261 131 127 127 129 133 136 122 118 122 119 112 106 93 91 83 85 43 76
359 131 272 14 182 55 205 53 144 176 89 53 49 130 275 21 303 17 305 314 324 319 139 2 118 127 103 56 30 22 18 26 26 36 40 35 24 20 12 358 5 1 2 351 346 349 329 303 261 238 227 224 225 223 224 224 228 219 226 216 202 193 203 206 218 206 204 213 206 220 224 219 206 199 192 169 158 180 157 149 139 141 138 138 132 134 140 134 127 119 107 103 99 147 76 44 45
63 272 309 55 125 76 243 205 135 248 55 287 257 121 251 65 249 53 285 313 297 310 358 121 120 56 21 26 21 14 21 29 32 34 39 35 26 16 7 359 355 357 346 340 325 329 336 314 295 253 232 224 218 217 219 223 221 227 229 228 211 209 215 225 233 232 220 212 211 229 232 226 221 224 121 149 132 160 152 240 156 154 157 158 138 148 140 131 125 116 115 136 151 50 36 32 30
106 248 340 71 110 231 158 207 245 130 208 295 269 155 246 133 172 268 130 289 228 12 63 356 332 0 24 26 19 13 22 28 29 31 32 30 26 23 10 357 346 337 338 320 325 337 337 328 308 277 233 223 221 216 220 218 216 218 225 235 230 233 229 226 248 262 231 200 208 212 219 216 227 229 190 180 197 186 181 175 168 174 177 186 159 184 174 147 161 138 137 162 72 75 46 37 21
177 5 44 103 130 263 114 173 99 138 132 233 169 255 70 96 206 214 232 269 318 9 12 14 42 45 33 19 15 24 31 33 30 28 26 23 16 10 3 359 353 348 346 343 344 334 340 331 314 288 255 219 213 215 213 213 222 221 221 220 216 230 265 245 243 220 228 230 216 224 216 215 215 215 214 214 207 201 190 190 194 205 217 233 181 192 189 170 129 127 115 98 91 84 80 49 37
246 132 208 231 152 290 78 161 166 187 175 199 260 126 281 213 241 190 224 304 33 29 25 41 49 41 40 34 32 37 36 37 32 28 22 21 15 12 5 359 356 355 355 348 338 337 335 330 324 291 261 217 212 210 208 214 214 211 220 216 234 240 229 233 200 7 304 273 244 228 236 230 221 222 225 221 209 211 212 211 215 205 184 106 192 191 176 138 132 145 146 130 128 111 102 87 65
284 3 126 152 186 242 106 279 122 214 225 274 85 136 263 228 276 137 147 49 60 54 47 58 60 58 47 48 39 40 39 35 35 33 26 24 16 13 4 358 354 346 353 350 346 339 339 339 327 283 234 215 201 205 208 211 219 211 208 196 222 236 265 255 220 108 131 166 291 310 278 252 228 214 228 227 224 221 223 214 203 150 181 190 194 185 153 135 118 130 142 140 140 122 108 106 78
234 250 124 121 221 244 257 252 241 234 249 266 212 254 266 206 319 167 78 98 90 76 64 63 58 58 48 44 34 30 30 27 29 30 33 25 20 23 20 10 359 358 357 350 340 337 347 345 339 304 207 195 192 190 196 199 215 219 203 228 228 185 207 228 238 181 133 104 120 287 30 299 255 233 218 209 210 222 209 201 189 172 160 143 169 169 133 127 164 128 184 142 111 109 109 93 70
212 4 141 194 253 289 279 276 256 246 252 168 210 254 94 190 138 86 86 105 95 98 82 52 58 52 44 41 38 33 28 26 17 19 15 18 19 22 20 11 359 4 353 341 336 339 340 345 14 31 135 177 166 181 170 187 206 200 223 207 155 64 25 45 167 58 41 48 32 21 8 332 321 275 242 224 208 215 209 194 174 159 124 163 185 132 122 141 136 196 52 173 136 90 70 61 7
179 121 263 279 304 323 263 251 286 80 266 173 255 261 121 108 261 148 108 122 134 130 80 63 68 69 60 56 48 35 36 28 21 8 22 24 26 24 13 4 5 352 347 348 342 339 342 352 29 67 112 141 179 148 147 167 186 191 316 58 66 62 51 52 52 56 53 46 46 36 28 31 13 36 36 29 15 16 19 34 50 28 94 122 117 100 103 84 73 341 274 280 84 81 75 65 8
97 320 269 250 256 252 248 257 280 279 220 210 228 182 147 161 239 52 76 130 195 137 84 70 66 63 58 53 48 39 37 28 22 22 22 20 18 10 10 3 353 346 348 344 339 336 344 358 12 59 99 132 130 123 69 69 45 51 61 55 62 63 60 56 57 51 49 48 49 45 40 34 37 54 62 67 65 62 55 43 39 54 47 55 44 59 75 71 63 56 36 9 17 36 90 96 56
108 265 291 282 259 269 120 291 60 285 118 207 182 140 160 161 141 82 78 137 158 120 88 68 61 59 52 46 49 39 33 28 28 32 23 18 13 12 9 6 355 345 343 335 338 352 351 356 9 33 60 78 75 74 76 68 71 66 72 67 66 68 70 69 62 56 53 51 47 46 49 43 39 54 58 65 70 67 66 62 61 60 54 41 42 62 70 84 118 113 76 27 21 8 31 74 119
200 156 334 297 276 263 115 159 174 266 118 125 201 262 134 132 108 63 50 192 177 135 82 65 61 54 47 45 49 49 36 32 34 30 20 14 12 12 10 4 3 355 343 345 352 2 353 17 26 42 57 68 72 75 75 75 74 71 73 70 70 68 63 63 63 66 65 60 54 53 53 52 50 50 60 62 72 72 67 70 69 59 50 50 80 93 85 76 74 70 59 21 21 346 354 15 16
275 53 239 281 305 242 144 25 321 279 101 234 229 274 151 145 133 44 17 214 220 164 98 85 72 67 60 49 54 57 48 41 37 31 24 22 15 16 10 7 3 2 359 358 358 356 6 14 38 56 64 73 73 71 75 76 70 66 61 59 55 61 61 63 57 54 50 44 48 49 49 58 58 56 57 74 70 81 76 68 64 54 54 42 63 58 63 56 56 57 44 23 349 307 284 224 288
15 271 233 157 240 162 131 94 1 265 97 206 236 250 284 152 122 19 16 148 202 153 119 98 77 67 64 65 66 65 60 50 42 35 25 20 19 14 13 9 4 4 3 355 353 4 19 11 39 63 64 65 63 70 72 69 68 65 66 63 62 58 61 57 53 52 48 42 40 44 36 39 47 43 34 56 76 76 77 70 66 66 63 66 62 60 57 64 68 72 63 346 321 300 312 332 341
150 227 267 246 203 279 295 103 21 9 317 102 254 302 121 177 144 63 34 140 169 149 134 113 101 82 75 70 68 63 72 55 40 31 21 12 19 14 14 9 7 4 3 4 7 11 27 22 16 47 60 69 75 76 75 74 80 75 68 64 62 60 60 55 48 49 51 46 39 43 34 36 45 47 45 55 73 75 76 72 66 66 64 63 52 47 52 38 46 67 62 30 346 333 344 344 338
216 162 250 286 246 228 249 111 145 36 284 194 173 253 269 108 137 106 79 127 179 155 140 134 121 93 78 78 68 61 51 39 29 17 9 11 11 12 18 14 9 5 9 13 10 19 24 25 31 28 55 71 76 76 77 79 75 75 68 65 62 60 57 56 50 49 50 47 45 42 35 39 35 37 34 42 58 60 62 64 58 50 50 52 50 51 50 42 41 36 45 30 6 347 13 7 358
223 177 223 238 217 237 273 262 90 267 142 249 169 251 268 153 148 135 97 184 210 144 134 127 123 112 94 81 74 61 55 47 32 15 7 6 8 11 16 16 16 14 19 16 22 24 31 31 36 34 39 63 78 83 85 82 78 77 75 71 67 63 58 56 53 54 48 47 46 40 40 42 36 31 27 31 47 47 53 54 57 53 57 56 50 44 39 32 31 32 27 26 43 40 30 21 0
258 202 234 265 250 216 227 225 90 317 251 250 241 259 265 224 149 134 132 134 166 131 131 137 139 129 110 99 82 72 63 61 34 20 13 16 13 10 17 21 30 28 28 24 34 38 41 43 49 51 36 38 70 80 82 81 79 76 79 74 66 59 56 56 51 51 49 47 41 43 42 47 44 40 38 40 48 51 54 52 56 51 52 56 54 49 42 36 29 30 38 24 21 77 42 18 8
83 133 224 242 254 266 104 182 90 255 276 248 257 264 263 267 156 127 135 147 147 162 175 170 165 150 139 111 101 84 72 57 28 30 32 24 22 19 21 27 39 49 37 36 43 42 44 54 60 53 36 29 51 67 61 71 79 79 68 68 73 66 64 62 60 54 52 47 43 45 45 44 41 41 39 44 53 59 59 56 57 58 59 58 59 57 53 46 36 30 42 52 34 37 38 19 7
223 244 236 250 215 260 197 134 102 177 233 277 144 255 259 255 121 122 154 180 184 181 180 176 160 159 138 131 115 94 83 96 78 70 46 41 33 29 37 37 31 49 35 40 46 45 53 57 61 56 49 56 55 59 69 64 55 63 81 71 76 66 64 62 64 56 55 51 49 47 46 44 44 43 36 41 47 52 57 57 54 53 57 61 63 60 56 52 44 39 26 51 50 44 48 21 15
192 244 242 258 257 264 254 103 124 166 187 254 117 259 266 208 122 122 166 194 129 115 278 165 170 161 150 131 123 115 127 117 95 76 56 54 44 40 47 44 43 45 45 46 46 57 59 63 65 66 62 66 61 65 72 72 72 70 78 82 82 81 67 69 72 69 64 62 55 51 50 48 46 46 42 40 43 43 51 55 53 52 50 52 59 54 48 45 38 38 34 28 34 54 54 38 28
227 210 228 241 236 183 248 125 136 150 255 325 82 283 274 128 114 122 109 184 118 81 109 109 285 171 158 152 145 149 144 133 109 73 70 57 52 53 49 46 40 44 47 49 43 54 60 67 71 78 76 74 77 76 84 82 82 84 82 83 80 80 85 79 75 67 63 62 57 53 50 48 48 49 43 44 46 44 43 47 48 46 46 44 49 51 43 40 35 32 31 30 19 42 37 44 40
213 224 234 248 216 224 240 282 172 125 210 258 267 270 268 200 194 174 134 133 149 153 152 164 156 147 142 143 150 187 155 147 132 123 90 71 66 51 50 43 44 51 48 38 30 46 63 71 73 78 81 84 89 93 96 101 102 97 97 96 94 91 81 74 69 61 58 59 61 49 46 46 47 48 46 44 45 46 43 42 44 45 47 45 49 52 50 43 39 37 31 37 29 22 36 35 44
218 215 227 239 243 237 164 107 232 247 235 171 217 263 239 152 210 185 141 173 190 163 202 193 178 179 182 182 173 160 161 183 149 124 104 80 76 73 64 56 55 59 53 34 29 48 72 82 80 81 85 85 89 91 102 112 112 115 117 107 95 81 72 58 53 56 53 55 58 59 54 49 49 51 48 47 45 45 44 42 41 43 44 44 45 51 51 48 40 37 32 33 33 23 25 35 29
227 244 209 229 238 231 177 176 185 232 246 121 283 243 247 149 192 172 171 195 189 168 218 206 195 191 192 190 182 179 172 162 150 133 131 118 96 92 77 64 57 66 56 43 51 64 73 79 81 84 86 85 76 81 77 91 86 80 81 83 85 86 90 75 70 63 65 64 65 61 59 53 50 53 49 47 45 44 45 41 42 43 42 43 41 46 44 43 40 33 31 37 34 27 28 47 33
225 60 108 179 194 202 202 196 213 271 27 89 184 299 271 278 245 116 150 197 199 200 212 212 207 194 196 192 185 181 174 172 158 146 127 108 106 103 99 82 72 69 70 75 75 76 79 81 85 86 84 81 73 77 73 75 89 87 87 86 84 85 86 89 78 72 67 66 68 63 63 58 53 51 52 48 45 42 41 42 40 42 43 40 40 44 42 36 38 38 36 38 41 39 34 39 37
298 29 79 136 182 193 173 202 216 300 309 248 190 153 251 243 233 116 164 224 217 218 198 209 201 193 192 191 186 178 171 164 167 158 148 137 128 114 110 103 94 94 76 82 88 89 91 90 89 89 86 81 74 75 80 76 83 88 90 95 93 86 88 88 86 80 75 70 71 66 64 64 61 54 50 49 45 43 41 41 40 42 41 38 38 42 41 38 36 34 31 33 34 39 39 33 39
116 124 90 89 86 80 155 194 180 169 228 242 210 172 243 257 190 202 157 241 245 207 194 201 192 186 189 189 181 171 161 164 174 163 151 140 125 117 104 114 109 96 91 99 101 101 97 97 94 89 82 79 79 80 83 82 82 89 92 93 97 97 94 91 86 82 78 73 71 66 63 61 57 56 53 48 47 44 42 41 42 41 41 37 36 37 37 38 35 36 35 36 32 38 38 37 34
132 163 106 93 83 96 99 71 156 171 242 236 122 174 228 276 176 217 186 212 123 150 176 179 174 184 193 190 175 168 169 170 175 171 165 146 125 127 136 126 116 111 105 108 99 97 92 92 93 87 83 85 81 83 85 86 86 86 91 93 94 98 97 96 93 82 77 70 68 63 62 59 55 54 51 48 44 40 43 41 41 41 39 37 34 31 29 26 25 26 28 33 36 31 28 27 33
166 153 148 124 95 134 148 137 218 239 249 102 18 219 212 220 209 231 215 86 179 165 174 176 181 187 189 181 173 171 172 172 171 172 167 157 150 141 145 136 138 128 119 109 100 99 96 94 99 96 90 89 89 92 92 90 89 89 91 93 92 92 94 91 87 82 73 71 68 69 65 63 58 55 51 48 39 36 39 40 39 42 40 34 33 30 27 22 22 26 28 27 28 28 26 21 22
214 151 161 184 170 161 199 163 217 209 241 110 63 158 194 234 254 37 101 214 187 209 100 181 177 180 180 176 170 169 172 173 178 177 167 166 163 162 163 152 145 147 130 121 114 110 107 105 108 105 99 98 97 98 95 94 93 92 93 92 90 87 86 87 85 84 75 74 70 70 67 65 61 56 48 49 41 37 38 39 37 36 37 35 31 29 27 23 20 29 29 29 30 27 22 13 22
194 184 179 185 178 188 221 177 335 319 91 53 85 51 256 30 258 247 233 139 55 74 104 32 178 174 174 170 167 168 175 184 185 178 171 173 171 171 168 162 156 144 140 132 129 122 118 115 114 107 106 104 104 101 99 97 92 94 94 95 97 96 92 89 86 84 81 76 74 70 67 66 65 61 54 50 41 40 45 44 43 43 39 35 30 27 26 24 17 24 28 25 25 24 15 9 17
195 128 184 207 186 165 197 183 220 229 104 108 239 190 226 161 207 21 5 2 348 23 42 55 130 163 162 154 152 165 182 193 187 182 180 177 176 173 168 165 159 156 149 145 138 134 124 116 116 114 113 113 111 108 106 103 101 98 97 96 98 99 97 93 88 87 87 84 78 76 73 69 70 67 61 58 49 49 49 48 43 40 35 31 26 23 20 21 16 15 23 20 17 15 4 4 360
124 265 3 279 217 178 241 52 272 97 181 183 177 240 188 202 72 31 339 290 219 146 158 139 163 164 144 152 174 185 191 191 187 187 182 182 178 175 172 171 168 162 157 151 147 142 134 125 122 119 120 122 119 116 111 109 106 104 103 103 102 101 102 101 100 96 91 88 86 82 77 71 69 72 68 59 50 47 42 41 43 40 32 28 26 24 19 16 9 12 17 15 13 12 351 354 352
178 146 210 205 11 108 101 109 71 72 49 256 138 242 229 10 232 142 203 178 199 154 167 168 170 171 169 183 186 191 193 191 188 187 183 181 180 184 181 178 173 169 166 163 157 151 142 135 131 127 126 125 123 119 118 117 117 117 116 115 115 111 107 102 102 98 92 85 83 78 76 71 70 64 66 58 54 53 50 38 42 41 32 25 20 21 16 12 352 6 11 3 7 356 340 339 339
108 220 196 86 267 341 187 222 96 194 244 265 138 213 202 152 233 136 179 217 203 192 171 177 174 176 190 197 191 191 193 193 185 183 185 185 185 185 183 185 182 176 170 163 159 155 148 142 141 136 137 135 134 132 130 132 131 126 125 120 110 105 103 103 102 101 95 94 92 90 89 83 68 67 70 69 69 59 61 45 39 34 27 20 15 13 8 3 353 2 358 357 4 346 335 332 326
245 211 132 175 187 195 176 120 207 177 226 257 198 225 245 200 204 137 207 208 206 186 168 171 188 193 202 199 195 195 192 182 184 189 188 187 188 185 185 188 185 178 172 165 160 158 156 149 147 144 142 142 141 139 138 137 137 129 124 118 114 110 108 106 106 106 106 105 100 96 95 92 94 77 65 59 53 49 40 36 37 22 20 17 14 11 3 359 351 357 349 350 354 342 328 321 316
68 133 167 350 310 220 161 200 342 162 252 140 242 134 244 180 199 173 191 202 193 158 173 199 199 198 196 197 194 191 191 194 190 190 189 186 186 187 189 186 183 179 173 170 165 166 167 159 152 148 143 144 144 145 145 139 133 126 120 120 118 117 118 119 120 122 115 108 104 106 102 95 83 70 65 53 55 47 36 30 26 24 13 16 10 4 357 347 340 354 340 343 340 329 319 315 315
153 181 184 172 147 334 351 31 199 214 229 228 287 276 205 165 168 174 186 192 180 166 187 196 200 202 204 198 191 193 190 188 190 185 181 182 186 187 190 187 178 171 173 174 176 177 170 163 162 156 153 153 154 152 148 140 137 134 133 132 130 128 124 120 118 117 112 110 110 103 94 97 92 71 58 59 52 45 29 25 21 18 17 6 7 359 353 344 345 342 338 332 327 327 325 319 320
189 177 189 180 148 160 185 219 81 288 219 236 190 253 96 167 77 222 113 53 159 182 184 190 196 199 197 202 204 188 187 192 181 176 176 178 185 188 181 174 174 175 180 186 185 180 173 173 167 164 162 162 158 156 151 144 142 141 143 142 138 133 132 128 124 120 114 115 109 101 107 114 100 82 70 56 53 40 28 17 16 17 16 11 2 360 353 350 346 342 338 338 327 329 322 318 316